Regional Weather Roundup
Issued by NWS

Home | Current Version | Previous Version | Graphics & Text | Print | Product List | Glossary On
Versions: 1 2 3 4 5 6 7 8 9 10 11 12 13 14 15 16 17 18 19 20 21 22 23 24 25 26 27 28 29 30 31 32 33 34 35 36 37 38 39 40 41 42 43 44 45 46 47 48 49 50
000
ASUS43 KMKX 020000
RWRWI

WISCONSIN REGIONAL WEATHER ROUNDUP
NATIONAL WEATHER SERVICE MILWAUKEE/SULLIVAN WI
700 PM CDT FRI AUG 01 2014

NOTE: "FAIR" INDICATES FEW OR NO CLOUDS BELOW 12,000 FEET WITH NO
SIGNIFICANT WEATHER AND/OR OBSTRUCTIONS TO VISIBILITY.

WIZ001-002-006>008-014>016-023>028-020100-
NORTHWEST WISCONSIN

CITY           SKY/WX    TMP DP  RH WIND       PRES   REMARKS
SUPERIOR ARPT  NOT AVBL
ASHLAND        SUNNY     70  62  76 N6        30.08R
6HR MIN TEMP:  70; 6HR MAX TEMP:  78;

HAYWARD        SUNNY     76  59  55 NE5       30.07S
6HR MIN TEMP:  76; 6HR MAX TEMP:  81;

SIREN          MOSUNNY   78  59  53 CALM      30.06S
RICE LAKE      NOT AVBL
LADYSMITH      NOT AVBL
EAU CLAIRE     NOT AVBL
MENOMONIE      CLEAR     81  56  42 N6        30.05R HX  81
6HR MIN TEMP:  80; 6HR MAX TEMP:  85;

NEW RICHMOND   MOSUNNY   81  55  41 W3        30.05S HX  81
OSCEOLA        NOT AVBL
$$

WIZ003>005-009-010-017-018-020100-
NORTH CENTRAL WISCONSIN

CITY           SKY/WX    TMP DP  RH WIND       PRES   REMARKS
WOODRUFF       MOSUNNY   77  55  45 N5        30.10R
RHINELANDER    MOSUNNY   73  57  57 CALM      30.09S
6HR MIN TEMP:  73; 6HR MAX TEMP:  78;

EAGLE RIVER    NOT AVBL
LAND O LAKES   NOT AVBL
PHILLIPS       MOSUNNY   72  57  58 NE3       30.08F
6HR MIN TEMP:  72; 6HR MAX TEMP:  77;

TOMAHAWK       NOT AVBL
MEDFORD        NOT AVBL
MERRILL        NOT AVBL
$$

WIZ029-030-035-036-043>047-020100-
CENTRAL WISCONSIN

CITY           SKY/WX    TMP DP  RH WIND       PRES   REMARKS
WAUSAU         PTSUNNY   71  61  70 SW6       30.07R
6HR MIN TEMP:  65; 6HR MAX TEMP:  80; 6HR PCP:  0.35;

MOSINEE        NOT AVBL
MARSHFIELD     TSTM      65  62  90 S12       30.09R FOG
6HR MIN TEMP:  63; 6HR MAX TEMP:  82; 6HR PCP:  0.27;

STEVENS POINT  NOT AVBL
WAUPACA        CLOUDY    71  53  52 CALM      30.07S
6HR MIN TEMP:  71; 6HR MAX TEMP:  86;

WAUTOMA        NOT AVBL
WISC RAPIDS    CLOUDY    65  59  81 CALM      30.09F
6HR MIN TEMP:  65; 6HR MAX TEMP:  82; 6HR PCP: TRACE;

CAMP DOUGLAS   TSTM      64  61  88 E15G37    30.12R FOG
$$

WIZ011>013-019>022-031-037>040-048>050-020100-
NORTHEAST WISCONSIN

CITY           SKY/WX    TMP DP  RH WIND       PRES   REMARKS
ANTIGO         PTSUNNY   69  59  70 S5        30.09R
STURGEON BAY   CLOUDY    70  61  73 SE6       30.06S
6HR MIN TEMP:  70; 6HR MAX TEMP:  77;

GREEN BAY      CLOUDY    74  65  73 W3        30.05S
6HR MIN TEMP:  74; 6HR MAX TEMP:  83; 6HR PCP: TRACE;

MANITOWOC      NOT AVBL
APPLETON       CLOUDY    72  61  68 SW7       30.06F
CLINTONVILLE   CLOUDY    70  59  68 NW3       30.06S
OSHKOSH        CLOUDY    72  62  71 SW3       30.05F
6HR MIN TEMP:  70; 6HR MAX TEMP:  81; 6HR PCP:  0.03;

$$

WIZ032>034-041-042-053>061-020100-
SOUTHWEST WISCONSIN

CITY           SKY/WX    TMP DP  RH WIND       PRES   REMARKS
LA CROSSE      MOSUNNY   82  59  45 SW5       30.04F HX  82
6HR MIN TEMP:  82; 6HR MAX TEMP:  86;

SPARTA         NOT AVBL
VIROQUA        NOT AVBL
BOSCOBEL       SUNNY     83  59  44 N5        30.06S HX  83
6HR MIN TEMP:  83; 6HR MAX TEMP:  88;

PRAIRIE DU CHI SUNNY     81  50  34 NW5       30.05S HX  80
PLATTEVILLE    NOT AVBL
$$

WIZ056-057-062-063-064-067-068-020100-
SOUTH CENTRAL WISCONSIN

CITY           SKY/WX    TMP DP  RH WIND       PRES   REMARKS
BARABOO/DELLS  CLOUDY    64  57  79 E9        30.12S
LONE ROCK      NOT AVBL
WATERTOWN      NOT AVBL
MADISON        TSTM      65  60  84 N14       30.11R
6HR MIN TEMP:  61; 6HR MAX TEMP:  86; 6HR PCP:  0.74;

MIDDLETON      NOT AVBL
MONROE         NOT AVBL
JANESVILLE     MOSUNNY   82  54  36 NW7       30.06R HX  81
$$

WIZ051-052-058>065-066-070>072-020100-
SOUTHEAST WISCONSIN

CITY           SKY/WX    TMP DP  RH WIND       PRES   REMARKS
MILWAUKEE      TSTM      66  60  81 N15G25    30.12R
6HR MIN TEMP:  66; 6HR MAX TEMP:  83; 6HR PCP:  0.25;

WAUKESHA       TSTM      61  55  82 SE10G21   30.12F
MILWAUKEE/TIMM TSTM      63  57  82 SW16      30.12R
RACINE         MOSUNNY   72  60  66 S10       30.09R
6HR MIN TEMP:  72; 6HR MAX TEMP:  83;

BURLINGTON     CLOUDY    75  59  58 SE9       30.08R
KENOSHA        MOSUNNY   74  60  61 SE6       30.08R
6HR MIN TEMP:  74; 6HR MAX TEMP:  83;

FOND DU LAC    CLOUDY    72  61  68 NE5       30.07R
6HR MIN TEMP:  69; 6HR MAX TEMP:  82; 6HR PCP:  0.02;

SHEBOYGAN      CLOUDY    69  61  75 SW3       30.06F
6HR MIN TEMP:  69; 6HR MAX TEMP:  82;

WEST BEND      NOT AVBL
JUNEAU         NOT AVBL
$$

LSZ147-162-020100-
LAKE SUPERIOR

STATION/POSITION TIME  TEMP    WIND        PRES    WAVE
                       AIR SEA DIR/SP/G            HT/PER
                 (UTC) (F)     (DEG/KT/KT) (MB)    (FT/S)
W MID LAKE BUOY  2250   52 48   10/  2/  4 1018.5F   0
PORT WING        2300   64      30/ 13/ 14 1017.9S
SAXON HARBOR     2300           CALM  /  2 1018.6S
$$

LMZ867-665-643>646-020100-
LAKE MICHIGAN

STATION/POSITION TIME  TEMP    WIND        PRES    WAVE
                       AIR SEA DIR/SP/G            HT/PER
                 (UTC) (F)     (DEG/KT/KT) (MB)    (FT/S)
N MID LAKE BUOY  2250   64 62  160/  4/  4 1017.5F   0
NORTHPORT PIER   2300   65     140/  7/  8 1017.9R
SISTER BAY       2211   70     110/ 10/ 13   N/A
ALGOMA LAKESHORE 2306           90/  7/  7   N/A
KEWAUNEE LAKESHO 2300   63     160/  5/  7 1017.2R
SHEBOYGAN LAKESH 2300   71     210/  9/ 10 1017.8S
PORT WASHINGTON  2340   68     220/  4/  7 1019.0S
ATWATER BUOY     2300   68      20/ 14     1019.8R
MILWAUKEE LAKESH 2300   70      20/ 11/ 13   N/A
S MID LAKE BUOY  2250   68 66  170/ 10/ 10 1018.1S   0
KENOSHA   LAKESH 2300   70     170/ 16/ 18 1017.6R
$$

TC  - TEMPERATURE IN CELSIUS
VSB - VISIBILITY IN STATUTE MILES
WCI - WIND CHILL INDEX
HX  - HEAT INDEX




USA.gov is the U.S. government's official web portal to all federal, state and local government web resources and services.